Location: Clarks Summit,Pa.
(41.5000°N, 75.6000°W)
Time: 11:01:00
(UTC-05:00)

Tiangong - Visible Passes

Search period start: 02 December 2021 00:00
Search period end: 12 December 2021 00:00
Orbit: 380 x 384 km, 41.5° (Epoch: 02 December)

Date Brightness Start Highest point End Pass type
(mag) Time Alt. Az. Time Alt. Az. Time Alt. Az.
06 Dec 4.3 19:01:37 10° SW 19:01:39 10° SSW 19:01:39 10° SSW visible
07 Dec 3.1 18:01:56 10° SSW 18:04:02 17° SSE 18:04:12 17° SE visible
08 Dec 2.9 18:37:01 10° SW 18:38:51 28° SSW 18:38:51 28° SSW visible
09 Dec 2.6 17:36:54 10° SSW 17:39:36 26° SSE 17:41:16 17° ESE visible
09 Dec 4.4 19:13:00 10° WSW 19:13:26 13° WSW 19:13:26 13° WSW visible
10 Dec 1.2 18:12:31 10° WSW 18:15:38 59° SSE 18:15:48 57° SSE visible
11 Dec 2.0 17:12:10 10° SW 17:15:08 39° SSE 17:18:07 10° E visible
11 Dec 3.2 18:48:38 10° W 18:50:16 28° W 18:50:16 28° W visible
